Location: Ellerstadt
(49.4644°N, 8.2615°E)
Time: 01:58:05
(UTC+00:00)

ISS - Pass Details

Date: 21 May 2021
Orbit: 417 x 422 km, 51.6° (Epoch: 15 June)

Event Time Altitude Azimuth Distance (km) Brightness Sun altitude
Rises 23:20:27 0° 289° (WNW) 2,372 0.3 -20.1°
Reaches altitude 10° 23:22:36 10° 283° (WNW) 1,506 -0.8 -20.2°
Enters shadow 23:24:05 23° 270° (W) 957 -2.0 -20.2°
